Regional Weather Roundup
Issued by NWS

Home | Current Version | Previous Version | Graphics & Text | Print | Product List | Glossary On
Versions: 1 2 3 4 5 6 7 8 9 10 11 12 13 14 15 16 17 18 19 20 21 22 23 24 25 26 27 28 29 30 31 32 33 34 35 36 37 38 39 40 41 42 43 44 45 46 47 48 49 50
000
ASUS43 KBIS 122010
RWRND
NORTH DAKOTA REGIONAL WEATHER ROUNDUP
NATIONAL WEATHER SERVICE EASTERN NORTH DAKOTA/GRAND FORKS ND
200 PM CST FRI FEB 12 2016

  NOTE: "FAIR" INDICATES FEW OR NO CLOUDS BELOW 12,000 FEET WITH NO
  SIGNIFICANT WEATHER AND/OR OBSTRUCTIONS TO VISIBILITY.

NDZ001>003-009>011-017-122100-
...NORTHWEST NORTH DAKOTA...

CITY           SKY/WX    TMP DP  RH WIND       PRES   REMARKS
WILLISTON      CLOUDY    14   0  53 E7        30.52F WCI   4
MINOT          SUNNY      9  -7  48 CALM      30.59F
MINOT AFB      SUNNY     13  -4  46 CALM      30.59F
$$

NDZ018>021-031>035-040>046-122100-
...SOUTHWEST NORTH DAKOTA...

CITY           SKY/WX    TMP DP  RH WIND       PRES   REMARKS
BISMARCK       SUNNY     13  -1  54 VRB5      30.59F WCI   5
DICKINSON      SUNNY     11  -2  56 E9        30.44F WCI  -2
GARRISON         N/A      8  -4  58 VRB3      30.56S
HETTINGER      CLOUDY    13   1  59 E10       30.46S WCI   0
$$

NDZ004>008-012>016-024-026-027-054-122100-
...NORTHEAST NORTH DAKOTA...

CITY           SKY/WX    TMP DP  RH WIND       PRES   REMARKS
GRAND FORKS    MOSUNNY    0 -10  63 N15       30.67S WCI -19
GRAND FORKS AF FLURRIES   0 -11  60 NW10      30.66F WCI -17
DEVILS LAKE    CLOUDY    -6 -14  68 N8        30.64R WCI -21
$$

NDZ022-023-025-028>030-036>039-047>053-122100-
...SOUTHEAST NORTH DAKOTA...

CITY           SKY/WX    TMP DP  RH WIND       PRES   REMARKS
JAMESTOWN      SUNNY      1  -9  62 N12       30.60S WCI -16
FARGO          PTSUNNY    2  -9  60 N16       30.65S WCI -18
WAHPETON       PTCLDY     3  -8  60 N17       30.63S WCI -17
$$



USA.gov is the U.S. government's official web portal to all federal, state and local government web resources and services.